Location: Newark
(53.7833°N, 9.4833°E)
Time: 18:45:38
(UTC+00:00)

Envisat - Pass Details

Date: 14 December 2019
Orbit: 764 x 766 km, 98.1° (Epoch: 20 January)

Event Time Altitude Azimuth Distance (km) Brightness Sun altitude
Rises 18:29:49 0° 208° (SSW) 3,225 6.6 -29.2°
Reaches altitude 10° 18:32:44 10° 225° (SW) 2,304 6.0 -29.7°
Maximum altitude 18:36:24 20° 272° (W) 1,730 5.5 -30.2°
Drops below altitude 10° 18:40:05 10° 319° (NW) 2,316 6.0 -30.8°
Sets 18:43:02 0° 336° (NNW) 3,248 6.6 -31.2°
